Wind_Speed
4 8 6 4 4 6 6 3 4 4 5 6 5 5 4 3 2 0 2 4 3 7 3 3 6 5 5 5 5 4 3 4 5 5 5 5 5 5 5 6 6 5 7 10 12 12 12 12 11 11 11 11 12 12 11 11 10 9 9 8 7 6 5 4 4 3 3 2 3 3 4 4 4 5 7 8 10 13 14 15 15 15 15 15 14 13
5 8 4 5 5 5 6 3 4 7 7 6 6 5 5 4 1 1 2 4 1 5 0 1 6 3 4 5 5 5 4 4 7 7 6 7 6 6 6 7 7 5 6 10 13 14 15 15 14 14 14 14 14 14 14 13 12 12 11 10 9 8 7 6 5 4 4 4 4 4 5 6 7 7 7 8 10 13 15 15 16 15 15 15 14 12
7 6 5 7 5 3 7 7 8 10 8 6 4 4 3 3 2 4 2 3 4 4 3 2 4 3 5 5 5 6 6 5 7 8 7 8 8 7 7 8 7 6 6 9 13 16 19 19 18 18 18 18 17 16 16 16 15 14 14 13 12 10 9 8 7 5 4 4 5 5 6 7 8 8 8 9 10 12 14 15 16 16 16 16 15 12
5 3 7 6 5 5 9 9 8 8 6 5 5 4 0 3 1 2 3 5 5 3 4 5 2 3 4 4 6 6 6 4 6 8 7 7 9 9 9 8 8 9 8 9 11 16 20 21 21 22 23 23 22 21 21 20 19 17 16 15 14 13 12 11 9 7 6 5 5 6 6 7 9 9 9 10 10 12 14 15 16 16 16 16 15 12
4 4 5 4 7 7 8 9 9 7 4 3 2 4 1 4 2 3 3 2 4 5 4 6 3 4 4 5 7 5 5 5 4 7 7 7 8 8 8 8 9 10 10 10 10 15 20 23 25 27 26 26 26 26 26 25 22 20 18 17 16 16 14 13 11 8 7 6 6 7 7 8 9 10 11 12 11 11 13 15 16 16 16 15 14 12
4 4 4 6 8 9 8 7 7 4 3 3 3 3 3 3 4 5 3 2 3 4 1 4 2 5 3 6 9 5 4 7 4 6 9 8 8 7 8 9 10 10 10 12 13 16 21 24 26 28 28 29 29 31 30 28 25 22 20 19 18 18 16 14 12 10 9 8 7 7 8 9 10 11 12 13 12 12 13 15 15 15 15 15 15 13
3 5 5 6 6 8 7 4 1 3 5 3 2 3 2 3 4 5 1 3 1 1 2 3 3 4 3 4 9 6 6 9 6 8 10 9 8 9 9 9 10 10 10 12 14 18 22 24 26 28 31 32 33 34 32 30 28 25 23 22 21 20 18 16 14 12 10 9 8 9 9 10 11 12 14 13 13 14 14 14 14 14 14 15 15 14
3 7 8 7 6 7 6 3 1 3 5 1 1 3 2 2 5 5 3 3 2 1 1 2 3 2 4 5 4 4 6 8 9 11 12 10 11 11 11 11 11 12 11 11 12 16 22 25 27 30 33 35 36 35 33 32 31 28 26 24 22 21 19 18 15 14 12 11 10 10 10 11 11 13 14 14 15 15 14 13 13 14 15 15 15 15
2 5 7 6 6 5 3 2 4 1 2 5 3 3 4 3 5 4 5 3 2 2 2 4 1 1 5 5 3 2 3 8 10 13 14 13 13 13 13 13 13 12 12 12 13 17 24 28 31 34 35 36 37 36 35 35 33 30 28 26 24 23 21 19 17 16 15 13 12 12 12 13 13 13 14 15 16 15 15 15 15 15 16 16 16 15
0 1 2 4 5 2 3 5 4 2 1 6 2 3 2 3 3 3 4 3 3 3 3 5 2 1 5 5 2 2 3 7 10 11 11 12 12 13 13 13 13 11 11 13 17 21 26 30 34 35 35 36 36 37 37 36 35 33 30 28 27 26 24 21 19 19 18 16 15 14 14 15 14 14 14 15 16 16 16 16 17 17 17 17 17 15
3 2 1 4 2 2 4 5 2 3 2 4 5 4 3 5 4 3 2 4 4 2 5 5 1 3 3 5 3 3 5 7 7 7 7 8 10 11 12 12 12 11 10 12 16 22 28 30 32 31 32 35 36 36 36 36 36 35 33 31 30 29 26 23 22 22 22 20 18 18 17 16 16 14 14 15 16 16 16 17 17 16 17 18 18 16
6 5 2 1 1 1 2 2 1 2 4 4 5 3 2 3 4 4 5 4 3 3 6 5 2 2 2 6 5 5 7 6 6 7 8 8 9 10 11 11 11 10 11 10 11 17 23 25 27 28 32 35 34 34 36 38 38 37 36 34 32 32 29 27 25 25 25 24 22 21 20 18 17 16 16 16 17 16 16 17 17 17 17 18 18 17
4 2 3 4 3 3 5 1 3 5 7 6 5 5 4 2 4 3 3 3 1 5 4 3 3 1 5 7 7 8 10 9 8 9 8 8 9 9 9 9 9 8 9 10 10 12 16 21 25 28 32 34 34 35 38 39 38 38 37 36 35 36 34 30 29 28 28 28 25 24 23 21 19 18 18 18 17 16 16 17 17 17 18 19 20 19
3 4 5 4 3 3 5 3 2 3 5 5 3 4 4 2 3 2 4 3 3 5 4 3 3 2 5 6 8 9 9 8 7 8 8 7 8 9 8 7 7 8 9 10 10 10 14 20 25 28 31 33 34 37 39 38 39 38 37 37 38 39 37 33 32 31 31 31 29 27 25 23 22 20 20 19 17 16 16 17 18 18 18 19 20 20
2 3 3 1 1 2 3 3 4 3 2 3 2 5 3 4 3 2 3 2 4 5 5 4 1 3 3 4 7 7 7 6 5 6 6 7 9 7 6 6 7 9 9 9 9 11 17 24 27 28 30 32 34 37 37 37 38 38 38 39 40 41 39 36 35 34 35 35 33 30 28 26 24 23 21 20 18 17 17 17 19 19 19 18 19 20
3 3 5 1 1 2 2 1 4 5 1 3 2 4 1 2 4 1 3 4 2 3 4 3 2 5 4 6 7 3 6 7 6 5 5 7 8 4 5 9 9 9 9 9 10 12 20 27 28 28 30 32 34 35 35 37 38 39 40 41 41 42 41 38 37 38 38 38 36 33 32 29 27 25 23 21 19 19 18 18 18 19 19 18 18 18
2 3 5 2 2 1 2 1 1 3 1 1 2 1 2 3 5 3 2 2 2 1 4 2 4 5 4 6 6 4 5 8 7 6 6 8 7 4 7 10 9 10 10 10 10 12 19 25 27 29 31 32 33 34 36 39 40 41 42 41 41 41 40 39 40 41 41 40 38 37 35 32 29 27 25 23 21 20 19 18 18 18 18 18 17 18
3 2 5 0 1 2 1 2 2 0 3 2 0 2 2 2 4 3 0 4 3 1 4 2 4 5 2 4 6 6 5 8 8 7 7 8 8 7 9 10 11 12 11 10 11 13 19 24 26 29 31 33 35 36 38 40 41 41 41 41 42 41 42 43 43 43 42 41 41 39 37 34 31 28 27 24 22 21 20 19 19 18 18 18 17 17
2 1 6 2 2 3 2 3 3 4 1 2 3 2 2 2 1 1 1 2 3 3 5 4 4 4 4 5 5 5 6 7 9 8 7 9 9 8 10 11 12 12 10 10 11 11 16 22 27 29 31 33 35 36 38 40 39 38 39 42 42 43 45 44 43 42 42 42 42 40 39 35 31 29 27 24 23 22 21 21 20 18 17 17 17 17
1 2 4 4 2 2 3 2 1 3 2 1 1 2 2 3 3 1 1 2 1 3 4 5 4 4 6 6 4 7 8 8 9 9 8 10 10 8 9 9 10 10 9 10 10 10 14 22 27 30 31 32 34 35 36 37 36 37 39 41 41 43 44 42 41 41 42 42 42 40 38 35 32 29 26 24 23 23 23 23 21 19 17 16 16 18
2 2 3 5 3 2 1 2 4 4 2 1 1 2 1 0 1 0 1 3 3 2 2 3 6 7 6 5 6 8 9 8 9 9 8 9 10 9 9 8 9 9 9 10 10 10 15 21 26 28 30 31 31 32 33 34 35 36 38 39 41 43 41 40 40 41 42 43 42 41 39 36 32 29 26 24 24 24 24 24 22 19 17 16 16 17
1 2 2 3 4 2 4 5 4 6 5 4 3 4 3 2 1 0 3 2 1 3 5 2 8 11 5 5 7 8 8 8 8 7 8 9 10 10 9 9 9 9 10 11 11 12 15 20 23 25 26 27 28 29 31 32 33 34 36 38 39 39 38 40 42 43 43 42 41 42 41 37 34 30 26 25 25 25 25 25 23 19 17 16 15 16
2 3 1 4 5 5 6 4 2 4 4 4 3 3 3 3 4 4 4 4 1 2 2 3 4 10 4 6 6 6 6 7 6 6 7 9 10 10 10 10 10 10 11 11 12 14 17 21 22 23 24 25 26 27 29 31 31 32 35 36 36 37 39 42 43 43 42 40 40 42 41 38 35 31 27 26 26 26 26 26 23 20 17 16 15 16
1 3 1 4 5 4 5 4 2 1 1 1 2 3 4 3 3 5 5 3 2 3 2 2 4 9 4 2 4 4 4 5 6 6 8 9 9 9 9 10 10 10 10 11 11 13 17 20 20 20 21 22 24 27 29 30 30 31 33 34 36 38 40 42 42 42 41 41 42 42 41 39 37 32 28 27 27 26 26 26 24 20 17 15 14 15
1 1 2 2 6 7 6 6 6 4 0 2 3 2 4 4 5 3 2 2 1 6 6 4 7 10 4 1 2 4 6 8 9 8 7 8 9 8 8 8 8 9 10 11 11 11 12 14 15 16 18 21 24 26 27 29 29 30 31 33 34 36 38 41 41 41 41 42 42 40 39 38 35 30 27 27 26 25 25 26 23 19 16 14 14 15
2 2 3 2 2 4 5 5 4 3 2 2 2 3 5 6 6 3 1 2 3 5 6 6 9 13 8 4 7 10 10 11 11 10 8 7 8 8 7 8 8 8 10 11 10 9 9 11 13 16 19 21 23 25 27 28 29 30 31 32 34 36 39 41 41 40 39 39 38 37 36 34 30 27 25 24 23 24 25 25 23 19 16 14 14 15
2 1 3 6 7 6 8 8 4 2 1 5 5 5 6 6 6 4 4 3 5 2 3 8 12 17 19 14 12 12 11 11 11 11 10 9 8 7 7 7 8 8 8 9 9 8 9 10 13 17 20 22 24 26 27 28 28 29 30 31 33 35 37 40 40 38 35 34 34 33 31 29 26 23 22 21 22 23 24 24 21 18 16 15 14 15
4 2 5 7 10 10 11 11 5 1 4 9 9 9 7 6 7 6 7 10 4 3 8 13 11 12 18 17 14 14 13 12 12 12 12 10 8 7 7 9 11 10 9 9 9 9 10 10 12 17 22 24 27 29 30 31 31 32 32 33 35 35 37 39 38 33 29 29 28 25 24 23 20 18 17 19 22 23 23 22 20 17 15 14 15 15
5 3 5 5 8 10 10 11 7 4 8 9 10 13 10 7 10 12 15 16 7 5 14 17 11 11 14 15 16 15 13 13 13 12 10 8 7 8 10 12 12 11 10 10 10 10 10 11 14 20 24 27 29 31 33 33 34 35 36 37 37 37 38 38 33 27 24 22 20 18 17 15 13 14 17 20 21 21 21 20 18 16 15 15 15 15
4 3 4 2 5 9 10 12 9 6 7 8 9 13 11 9 13 15 16 16 13 13 18 19 19 19 16 15 17 14 12 11 11 10 8 7 8 10 11 11 10 10 10 10 11 11 11 14 19 23 25 27 29 31 32 32 34 35 36 37 38 40 40 34 26 21 16 14 12 10 9 8 11 16 18 19 20 20 19 18 16 15 15 15 14 13
2 3 1 2 4 7 8 9 8 5 6 8 10 13 13 12 12 12 13 13 11 13 17 16 17 17 14 12 12 10 9 8 8 9 9 8 9 10 10 10 10 10 11 11 12 13 13 16 19 21 23 25 27 29 30 31 33 35 36 37 37 36 30 20 9 3 3 5 4 3 5 10 13 16 16 17 18 18 17 16 15 15 15 14 13 13
2 3 2 5 3 6 2 4 7 6 5 10 14 16 16 12 8 7 8 8 8 9 11 10 9 10 9 7 6 7 8 7 8 9 8 7 8 9 9 9 10 11 11 12 13 13 13 14 18 21 23 25 27 29 29 31 32 31 30 30 28 23 17 14 13 12 9 5 3 6 9 11 13 14 15 15 16 15 15 15 14 14 14 13 13 13
3 2 1 2 2 6 3 5 7 7 6 8 10 10 10 7 4 4 6 7 9 7 6 7 7 7 6 7 10 12 11 8 7 7 6 6 7 8 9 9 10 11 11 11 11 12 13 15 19 22 24 25 26 27 29 29 28 25 23 23 22 20 18 17 15 12 9 8 8 9 10 11 12 12 13 13 13 13 13 13 14 14 14 13 13 13
3 3 2 2 2 5 5 5 6 6 6 6 5 6 6 5 6 7 9 10 9 6 6 7 7 7 9 10 11 13 10 7 7 5 5 6 6 7 9 10 10 11 11 10 10 12 14 17 20 22 23 24 26 28 29 28 25 22 20 20 19 18 16 15 14 13 11 11 11 12 11 11 11 11 11 11 12 12 13 14 14 14 13 13 13 14
4 4 2 2 2 4 5 5 5 5 6 7 7 4 6 6 7 8 10 12 11 10 9 9 9 10 11 10 9 8 7 6 6 5 7 6 7 8 10 11 11 10 10 10 10 13 16 19 20 21 22 24 27 28 28 27 25 22 21 21 20 18 16 15 14 12 12 12 12 11 10 10 10 10 11 11 12 13 14 14 14 13 14 14 14 15
6 5 2 1 2 3 3 2 1 7 8 9 8 3 3 2 1 3 7 9 10 10 8 7 9 11 9 8 7 6 6 7 4 3 6 8 9 10 10 9 10 10 10 11 12 15 17 18 19 21 22 25 27 27 27 27 25 23 23 22 20 17 14 13 12 11 11 12 11 10 9 10 10 10 11 11 12 13 13 14 14 14 14 14 15 16
6 5 1 2 2 2 2 3 4 8 11 9 4 1 2 1 1 2 4 7 8 7 5 6 9 10 7 6 6 7 7 7 3 2 6 10 10 9 8 8 10 11 11 14 17 16 16 17 19 22 23 25 26 26 27 28 27 24 24 21 18 15 14 13 12 12 12 11 10 9 9 9 9 9 10 11 12 13 13 14 14 14 15 15 16 16
4 3 4 3 2 1 0 4 4 5 7 6 4 3 2 2 3 4 1 5 6 4 3 5 7 7 5 5 7 8 8 8 5 0 5 8 7 6 6 8 10 11 13 17 17 15 16 19 21 22 23 24 25 26 27 27 25 23 20 19 17 16 15 14 14 14 13 12 10 9 9 9 9 10 11 12 13 13 14 14 14 15 15 16 16 17
3 2 4 3 3 0 2 3 3 4 6 6 5 5 3 3 4 5 1 5 5 2 1 3 4 4 3 4 6 5 5 9 9 3 5 7 6 5 7 9 11 14 16 16 14 14 17 21 22 22 22 23 23 24 26 25 22 20 18 18 19 18 16 15 15 14 13 12 11 11 11 11 12 12 13 14 14 14 14 14 15 16 16 16 17 18
3 3 2 3 5 3 3 3 4 5 8 8 5 4 3 4 6 6 5 6 3 2 1 3 3 2 2 3 4 2 2 5 8 5 6 8 8 8 10 10 13 17 18 15 15 16 19 21 21 20 21 20 20 22 23 22 20 18 18 19 19 17 16 16 15 14 13 13 13 13 13 14 15 15 15 15 15 15 15 16 16 17 17 17 18 18
1 1 2 3 5 5 4 4 5 5 8 9 5 3 5 4 4 4 5 6 2 3 3 4 4 3 2 1 1 0 2 3 4 5 7 8 8 9 11 12 15 17 15 13 16 19 21 20 18 18 18 17 18 20 21 21 20 19 18 19 18 17 17 16 15 14 14 14 14 15 15 16 16 16 16 16 16 16 17 17 18 18 18 18 18 18
2 1 2 2 3 3 4 3 4 6 6 4 4 4 4 2 2 3 4 3 1 2 2 3 4 4 3 2 2 3 3 2 2 4 6 7 7 7 10 14 15 12 11 13 17 19 18 17 16 17 17 15 16 19 20 20 20 19 19 18 17 17 17 16 15 15 15 15 16 16 17 17 17 17 17 17 16 17 18 18 18 19 19 19 19 19
5 4 2 3 4 3 2 1 3 6 5 5 6 2 2 2 3 3 2 1 1 3 1 1 3 3 2 2 3 4 3 2 3 4 5 5 5 7 11 14 12 9 11 15 18 17 17 16 16 17 16 15 16 18 20 21 20 19 18 17 17 17 17 16 16 16 16 17 17 17 17 17 17 17 17 17 17 17 18 19 19 19 20 19 19 20
5 5 3 4 4 4 3 4 4 4 4 5 4 2 4 4 2 2 1 1 1 3 1 2 3 3 3 3 3 4 3 2 3 3 4 4 4 7 10 11 9 10 12 15 16 16 17 16 16 16 16 16 16 18 20 20 20 19 18 17 18 18 18 17 17 17 18 18 19 19 19 18 18 18 18 18 18 18 20 21 20 21 21 20 20 20
7 7 4 4 5 4 6 8 7 4 3 5 5 4 4 3 1 4 3 0 1 2 2 3 3 3 4 3 4 3 2 2 3 3 3 3 4 7 8 8 9 11 13 14 14 15 16 16 14 15 16 17 18 18 19 19 18 18 18 18 19 19 18 18 18 18 19 19 19 19 19 19 19 19 19 19 19 20 21 21 21 21 21 21 20 20
6 4 3 2 3 4 6 7 7 6 6 4 4 4 3 2 1 3 3 2 2 2 3 3 3 4 4 3 3 2 2 2 2 3 3 3 5 7 6 7 10 11 12 13 14 15 15 14 14 16 18 19 18 18 19 18 17 18 19 19 19 19 18 18 19 19 20 20 20 20 20 20 21 20 20 20 20 20 21 21 21 21 21 21 21 21
3 2 3 3 3 3 5 5 3 4 6 5 3 2 0 2 2 3 3 3 3 4 4 4 4 4 4 3 2 1 1 2 2 3 3 3 4 6 5 7 10 11 11 12 12 14 15 14 14 16 17 18 18 19 19 18 18 18 18 19 19 18 19 19 18 20 21 21 21 21 21 21 22 22 22 21 21 21 21 21 20 21 21 21 21 21
1 2 2 5 5 5 8 8 4 4 7 7 4 2 2 3 3 3 3 3 4 5 4 4 4 4 2 1 2 2 1 2 3 3 3 3 4 4 5 7 10 11 12 12 12 14 15 15 15 16 17 17 18 18 18 19 20 19 19 19 19 19 19 19 19 20 21 21 22 22 22 21 22 22 22 22 22 22 22 22 21 21 22 22 22 22
4 3 3 3 4 6 9 9 5 4 7 7 2 1 3 4 3 2 3 4 5 5 4 3 2 2 3 4 3 3 2 2 3 2 2 3 3 4 7 9 11 11 12 12 12 13 14 14 15 16 17 17 18 18 19 21 21 20 19 18 18 18 19 20 21 21 22 22 22 22 22 22 22 22 23 23 23 23 23 22 22 22 23 23 22 22
4 5 4 3 4 7 7 5 2 2 5 6 3 1 3 4 3 3 3 4 4 5 4 3 1 3 7 7 5 4 2 1 3 3 2 2 2 4 8 11 11 11 12 12 13 14 15 15 16 16 17 18 19 19 21 22 21 19 18 17 17 18 19 20 21 22 23 23 23 23 23 24 23 23 23 23 24 25 25 25 22 20 21 23 23 22
5 7 6 5 6 7 6 6 5 3 4 4 2 3 3 4 3 3 5 5 5 5 4 4 3 3 5 6 6 5 2 1 2 3 3 2 3 6 10 11 10 11 11 12 13 15 17 17 17 17 17 18 19 21 21 21 19 18 17 17 17 18 19 20 21 22 23 23 24 24 24 24 24 24 24 23 23 23 24 26 26 24 21 20 20 20
Wind_Direction
40 63 38 5 316 309 314 296 184 162 113 107 101 77 71 62 350 312 137 225 136 86 2 34 106 145 165 185 190 183 157 145 171 185 203 210 204 211 215 221 222 222 225 211 205 213 219 219 214 209 205 201 201 201 203 208 213 219 220 216 217 221 227 230 242 256 266 285 305 326 331 336 338 310 297 295 290 292 296 297 298 299 302 306 308 304
48 67 18 323 302 312 349 14 105 91 76 82 98 84 48 52 324 286 155 244 296 96 204 72 108 162 198 203 203 181 175 194 197 195 211 213 212 220 216 222 227 229 229 216 214 216 219 227 228 228 226 221 218 214 213 217 220 227 232 234 232 231 232 233 239 251 270 289 304 326 328 329 334 327 316 308 295 291 292 293 293 295 298 303 307 303
50 53 338 321 307 340 36 42 74 81 79 71 75 90 51 6 308 300 337 347 19 95 181 160 125 214 243 234 226 204 204 222 209 203 208 205 210 221 218 221 224 227 230 222 222 220 220 226 229 232 235 235 235 231 227 225 225 229 233 238 239 237 235 234 240 249 262 281 295 310 318 321 324 323 316 311 301 288 284 286 287 290 294 300 305 301
74 0 320 335 349 47 55 35 54 73 65 60 62 86 61 313 9 265 317 13 25 66 148 139 112 265 264 267 255 228 225 246 225 219 222 208 207 216 217 217 214 217 223 222 226 225 223 225 228 231 235 237 239 239 237 233 230 232 234 237 239 239 238 236 240 248 255 270 284 295 305 312 314 314 310 307 298 281 276 278 279 283 289 295 300 297
86 303 308 23 28 50 65 35 40 60 37 16 85 116 170 281 239 224 279 24 28 27 99 116 47 291 228 228 251 242 245 266 244 228 238 231 223 224 225 222 217 215 216 217 223 226 225 225 228 230 234 237 238 238 240 239 236 236 237 238 238 238 238 238 241 246 255 266 278 291 301 307 309 308 306 304 296 278 268 269 273 279 284 288 293 292
58 331 352 46 28 38 66 48 33 69 61 344 274 177 186 240 237 259 310 59 38 2 208 137 46 299 232 216 240 239 242 252 243 235 238 235 232 231 230 229 224 223 221 220 222 223 224 226 229 232 233 235 237 239 242 242 241 242 241 238 237 238 238 239 242 245 253 264 275 288 295 302 304 303 303 301 293 280 269 269 273 277 279 282 286 285
32 354 38 69 48 40 61 71 37 106 83 0 253 166 184 171 188 239 229 114 99 304 231 144 140 274 298 249 240 218 222 245 249 248 243 236 233 227 227 227 223 225 225 225 228 226 226 227 229 231 233 233 236 241 244 243 242 243 244 242 239 240 240 240 242 244 250 260 270 280 287 293 296 295 300 297 287 281 275 273 272 271 273 275 279 280
6 3 22 43 50 46 50 38 305 110 97 264 217 80 318 184 169 204 151 125 218 170 24 25 141 238 288 274 257 182 210 255 259 253 248 238 234 230 229 228 224 224 221 222 228 227 227 228 228 231 234 235 237 241 244 243 242 242 244 245 242 242 242 241 241 243 248 255 263 272 279 283 288 289 292 290 284 281 275 269 268 269 270 272 274 277
339 16 16 29 38 36 41 304 274 138 116 255 270 6 306 215 171 168 110 91 341 76 309 308 46 240 273 282 358 95 216 268 262 251 246 236 232 231 230 230 227 227 223 221 225 226 228 229 230 233 236 238 240 240 242 244 244 244 245 245 244 243 243 241 240 241 245 252 258 265 271 276 282 283 283 282 281 280 270 262 264 268 270 270 271 274
242 70 116 87 50 346 262 266 258 131 255 280 318 39 18 65 106 105 98 99 33 49 250 279 21 65 278 279 0 61 243 257 255 252 247 237 233 229 230 232 230 230 229 227 230 231 231 231 233 236 238 241 242 242 243 245 245 245 246 245 244 244 244 242 239 240 243 246 251 258 264 270 274 275 275 277 279 279 269 261 262 265 267 268 268 269
308 331 141 101 53 263 252 270 225 126 285 320 36 48 30 29 44 61 66 90 60 345 251 258 50 95 300 280 224 192 221 221 231 258 260 244 239 233 231 231 229 228 229 230 233 236 237 238 239 239 240 242 244 244 243 243 243 243 244 244 244 245 245 242 238 239 242 243 246 253 258 262 265 267 268 270 275 276 270 263 261 262 264 265 265 265
350 3 358 248 280 349 22 290 218 25 342 24 53 50 42 358 7 17 357 42 76 273 257 261 283 135 225 268 240 229 242 223 210 240 253 243 238 237 233 231 230 228 230 230 232 238 240 242 242 240 241 243 242 242 242 242 242 241 241 243 244 245 245 242 238 237 240 241 243 248 252 254 256 259 260 262 268 272 270 265 260 258 261 262 261 261
3 353 316 304 304 39 53 3 322 351 9 29 33 51 67 359 2 5 329 9 189 245 250 267 312 255 230 253 253 253 255 240 223 230 241 238 235 239 236 234 235 231 232 233 231 237 237 238 239 237 238 241 240 240 241 241 240 239 240 240 242 245 245 242 238 236 238 239 241 245 247 249 250 252 254 256 260 268 270 265 257 254 257 259 258 258
347 315 329 352 339 32 78 88 351 334 359 15 40 83 86 79 38 319 287 337 290 267 272 305 346 295 275 274 245 241 250 244 238 241 243 243 240 245 245 242 246 242 238 237 235 237 237 236 237 237 238 239 240 241 241 241 240 239 240 240 240 244 244 241 238 236 236 238 240 243 244 244 244 246 248 250 256 264 266 262 255 251 253 256 258 258
54 324 316 47 323 28 78 135 158 158 338 332 153 122 111 139 132 247 239 238 274 286 294 317 346 209 246 273 228 228 261 264 255 249 246 252 250 255 272 266 256 250 245 243 242 242 242 241 240 239 240 240 241 243 242 241 241 240 240 241 240 242 242 239 238 236 235 237 239 240 240 240 240 242 244 247 253 260 260 258 252 248 250 253 256 258
75 269 259 255 216 111 72 220 144 110 22 295 127 88 54 175 148 165 206 202 228 313 298 285 243 215 227 265 256 276 296 277 267 261 250 257 257 259 274 265 255 252 251 245 244 245 246 246 245 243 243 243 244 244 244 243 242 241 241 242 241 242 242 239 238 237 235 236 237 237 237 237 237 239 240 243 249 253 254 253 249 246 247 249 253 257
65 277 281 331 331 98 123 218 101 106 162 326 48 82 235 176 123 111 279 300 66 353 282 253 255 283 320 292 293 355 319 288 287 280 265 265 272 269 259 261 258 255 253 247 244 247 249 249 248 247 245 245 245 245 245 246 245 244 243 242 242 243 241 239 239 237 235 234 234 234 234 233 234 235 236 240 244 247 248 247 247 246 245 246 251 257
130 281 293 352 51 309 160 122 358 97 137 94 95 214 197 81 78 97 348 345 30 252 266 259 254 283 333 293 313 348 307 286 286 285 284 282 281 269 259 261 260 257 258 259 255 252 253 253 251 250 248 247 247 247 248 249 250 247 244 244 243 241 241 241 239 237 235 233 232 232 232 231 232 233 235 239 242 243 243 243 243 244 244 245 248 254
113 356 299 247 160 306 4 67 343 317 36 133 183 183 107 91 320 30 108 324 344 292 283 294 282 268 216 228 290 301 268 275 287 291 294 284 273 263 263 265 265 265 266 264 262 257 255 255 253 252 251 251 251 251 252 254 253 248 246 246 244 243 244 244 240 237 235 233 232 232 231 230 232 232 233 237 240 241 242 242 241 239 241 243 245 251
89 102 289 278 218 293 2 60 246 283 325 51 83 5 47 141 178 192 168 180 209 278 290 312 316 262 226 212 216 249 259 272 286 292 289 278 273 268 267 269 269 270 268 264 264 263 260 259 258 257 256 255 256 256 256 256 254 250 248 247 244 245 246 244 240 238 235 234 232 231 230 231 231 231 232 236 239 240 242 243 239 235 236 238 242 248
42 109 248 291 325 334 302 228 195 188 193 113 51 305 309 1 161 220 216 157 143 194 239 306 298 263 234 195 198 238 261 264 266 275 279 279 281 279 274 275 277 277 277 276 274 271 270 268 266 264 263 263 263 262 261 259 256 253 250 247 246 246 244 243 241 239 237 235 232 229 229 229 229 229 231 235 238 240 243 242 238 233 232 234 238 243
71 131 213 288 322 283 243 236 196 183 180 158 176 205 193 180 138 36 287 281 112 177 185 201 285 276 242 170 206 236 247 254 258 263 273 280 282 285 285 283 283 285 284 285 285 284 282 278 276 275 273 271 269 267 266 264 260 256 253 251 249 247 245 244 243 240 238 235 231 229 228 227 226 227 230 233 236 238 240 240 237 233 231 232 235 239
137 107 132 266 264 244 253 267 193 190 181 150 180 186 141 137 133 144 243 267 264 237 189 123 273 277 240 165 205 230 229 247 259 258 273 283 281 284 290 290 288 286 285 286 288 289 289 289 288 286 283 280 277 276 275 273 267 262 258 256 252 249 248 247 245 243 239 233 230 229 226 224 224 225 227 230 233 235 238 238 237 233 232 233 235 237
93 85 75 283 288 301 306 322 348 348 86 139 226 167 142 159 148 159 189 196 194 236 222 111 266 272 270 171 203 221 241 265 272 265 270 281 288 290 290 293 294 291 291 292 293 294 296 296 294 291 290 289 289 288 286 283 278 272 267 263 257 254 253 252 249 245 239 233 231 227 222 220 221 222 224 227 230 233 236 237 236 234 234 235 234 237
224 158 88 346 329 335 341 347 339 332 351 220 242 204 178 144 100 118 167 90 267 232 197 185 262 266 265 15 317 298 303 302 295 283 270 271 284 292 293 295 296 298 303 305 304 304 303 302 301 301 302 303 303 303 302 300 298 292 285 278 271 265 263 262 257 249 240 234 230 225 219 217 217 219 222 226 230 234 236 237 237 235 234 234 235 238
180 185 128 122 274 290 298 299 289 268 237 243 238 217 208 162 137 169 156 85 255 236 175 175 252 270 276 312 313 305 303 301 298 296 291 281 281 290 298 301 303 307 310 310 310 311 313 317 322 324 325 325 323 321 319 316 313 308 302 294 286 277 272 270 263 252 243 235 229 223 217 213 213 217 222 227 234 238 240 240 239 237 235 235 235 236
96 208 195 186 198 217 241 252 241 145 250 273 265 244 223 192 173 141 104 187 214 201 214 217 237 270 285 291 295 296 295 294 297 303 305 301 297 298 297 300 309 315 314 315 322 330 335 340 340 338 336 333 330 327 325 322 318 314 309 303 297 288 280 276 267 255 243 234 227 222 215 211 213 216 223 234 240 242 242 241 240 238 237 236 234 233
91 283 241 209 221 235 245 257 272 0 264 262 266 263 240 195 174 161 197 227 196 91 276 254 223 246 275 284 290 295 299 302 304 305 305 303 301 302 306 316 326 332 340 347 352 352 348 344 338 337 338 339 339 339 337 334 330 326 322 317 312 304 294 284 272 256 241 230 223 218 212 210 213 222 234 242 243 242 242 240 240 240 237 235 232 233
121 256 242 206 242 258 263 268 270 265 262 259 261 265 256 201 183 198 222 232 210 204 260 269 262 253 267 280 286 291 298 301 300 297 298 304 310 318 328 336 343 351 358 359 355 350 346 343 346 349 351 352 350 347 343 339 335 331 327 322 318 314 306 294 276 255 239 226 216 208 204 206 222 239 244 244 242 242 240 238 239 239 236 233 231 233
144 247 240 203 277 274 268 270 264 247 261 265 256 258 254 220 204 212 231 240 234 236 254 270 279 276 275 277 281 289 295 292 291 295 304 319 332 339 345 350 355 358 357 353 349 351 355 358 360 358 355 352 348 344 341 337 333 329 325 320 316 313 307 295 272 248 231 212 195 189 199 225 245 247 245 244 243 240 237 237 238 237 234 233 233 238
189 256 234 86 314 276 259 272 277 251 255 270 269 264 259 248 228 220 236 247 245 250 257 266 276 278 277 274 274 279 283 284 294 307 320 338 351 356 358 358 356 352 352 354 358 4 7 3 359 353 350 348 345 343 342 338 336 333 329 327 324 319 312 302 282 242 147 137 147 198 249 254 252 250 249 246 242 238 236 237 238 237 236 236 240 247
177 264 6 59 337 282 270 323 310 294 277 278 278 271 263 257 236 212 226 228 217 240 264 276 276 273 277 289 290 282 285 300 315 322 336 356 7 9 3 354 351 352 356 3 8 7 3 356 352 349 348 347 345 345 344 342 340 341 343 347 352 357 6 23 39 44 44 35 338 288 272 264 260 257 253 246 241 239 238 239 239 240 243 246 251 254
147 182 42 73 286 275 310 343 316 316 316 285 265 250 243 239 220 225 252 238 217 226 267 273 265 274 301 317 310 308 318 336 339 341 0 10 10 10 1 352 353 359 6 11 9 0 354 352 350 348 347 347 348 347 346 344 343 348 359 8 16 24 30 30 25 15 0 340 318 301 290 281 272 263 255 248 245 244 244 246 248 250 254 258 260 261
131 144 180 176 229 269 298 335 326 317 302 267 235 189 194 224 224 232 258 259 240 219 229 256 277 300 305 304 306 317 335 348 337 351 36 36 16 3 357 358 5 8 9 6 358 353 351 350 347 346 348 350 350 348 346 347 348 352 1 7 9 10 9 4 359 351 342 333 320 308 298 286 275 267 262 257 254 254 255 256 257 259 264 266 265 265
141 148 193 189 191 267 308 3 345 281 238 247 269 233 210 226 219 223 251 264 259 250 251 270 288 287 287 298 314 329 342 332 331 23 56 40 22 11 3 5 10 8 359 352 349 349 348 348 348 349 352 351 347 346 346 346 345 345 349 351 351 351 350 348 348 345 338 329 318 307 296 286 280 275 271 268 264 262 262 262 264 269 272 270 269 271
149 153 178 187 194 275 324 58 276 276 277 289 300 284 190 194 180 243 271 264 253 254 258 265 273 277 289 312 326 334 332 319 318 79 58 31 28 22 11 8 4 355 349 346 346 345 347 352 355 352 350 347 345 344 343 341 337 336 338 340 341 344 348 349 347 342 335 326 314 304 296 289 283 278 275 271 268 266 267 270 275 278 277 275 274 276
143 143 159 238 215 213 246 228 255 305 313 306 302 123 141 199 193 230 277 266 248 247 260 271 280 290 305 325 331 327 318 307 270 141 49 32 32 25 19 10 351 341 343 343 341 345 355 1 358 351 348 347 346 345 343 340 335 331 332 337 343 348 351 350 346 341 335 326 315 305 298 292 285 282 280 277 276 278 280 281 283 283 281 279 279 280
144 163 171 204 231 131 203 288 308 321 300 270 251 248 233 208 168 147 198 276 269 257 252 258 276 297 318 332 328 320 316 318 307 160 55 32 25 26 17 354 343 344 345 343 345 357 7 2 354 351 351 350 349 349 349 348 345 342 345 352 355 354 350 347 344 341 335 329 322 316 309 303 301 298 296 293 292 291 291 290 289 288 286 284 283 284
70 50 127 167 263 289 153 244 258 260 262 252 239 240 226 175 128 98 10 284 273 282 241 214 240 283 312 308 311 330 346 330 317 330 44 19 7 13 355 342 351 354 349 352 6 14 6 356 351 352 355 354 354 355 358 -0 0 1 3 1 356 351 348 345 342 339 335 330 325 322 320 319 316 313 310 307 305 302 299 297 294 292 291 289 287 287
60 26 105 184 238 222 175 226 243 240 258 265 252 219 193 156 107 62 332 279 218 158 177 172 187 234 246 270 300 18 42 307 305 331 6 357 351 354 352 354 360 354 353 8 21 10 358 354 353 354 356 357 358 359 1 2 4 3 360 355 352 350 347 344 341 338 334 329 327 326 325 325 322 319 317 312 309 306 303 300 298 296 294 292 290 288
174 226 188 202 229 213 194 238 270 260 256 263 258 171 155 135 78 37 288 261 184 146 173 156 153 186 205 228 272 203 222 259 303 334 343 343 340 345 356 4 1 358 5 18 12 359 354 354 355 356 356 357 358 0 1 0 359 355 351 352 353 351 348 343 338 336 332 329 329 328 327 326 323 320 317 313 309 306 303 302 301 298 296 293 290 287
206 200 198 186 207 210 194 215 277 286 262 212 149 140 147 134 326 274 239 241 96 120 152 137 137 156 170 177 201 238 254 266 323 327 329 334 334 344 360 1 358 5 18 12 1 356 354 354 356 356 356 356 358 359 359 358 356 352 350 354 356 352 347 343 338 335 332 330 330 329 327 326 323 319 315 312 308 304 302 301 300 297 295 292 288 286
181 179 221 203 185 179 164 190 274 285 260 156 125 120 180 196 238 236 224 266 114 117 98 105 138 151 173 202 230 241 243 267 308 316 323 331 345 1 360 353 356 14 15 1 355 357 358 356 356 356 356 358 357 357 358 356 352 349 350 353 353 349 345 342 338 333 330 329 329 328 327 325 322 319 315 310 307 303 301 301 299 296 294 291 287 286
188 181 210 226 194 158 172 209 221 229 206 169 153 202 221 218 206 128 88 315 135 131 143 171 174 189 191 213 256 248 233 274 303 316 332 342 4 4 351 350 6 17 6 357 355 359 0 357 354 355 358 358 354 353 355 355 350 347 348 349 347 344 341 339 336 331 329 328 327 326 326 324 320 318 314 311 309 304 301 301 300 297 294 291 287 285
212 193 194 223 216 194 209 228 234 230 201 190 207 233 239 244 168 110 117 178 160 167 169 162 193 218 205 227 262 250 248 296 314 341 355 3 2 348 342 357 14 8 359 358 360 1 0 357 354 354 352 352 353 352 352 353 351 347 345 344 341 339 337 334 331 328 326 326 324 324 323 320 317 315 312 311 309 305 303 302 300 297 295 292 289 285
231 194 166 216 247 262 263 256 254 267 273 246 226 235 231 211 139 112 117 141 178 183 163 161 198 212 212 241 256 243 277 316 347 356 2 10 344 335 347 10 6 357 358 3 2 0 358 355 353 351 347 347 351 351 350 353 353 346 342 339 337 336 333 331 328 326 325 324 323 323 321 319 317 315 314 312 309 306 304 301 298 296 294 291 287 284
269 180 174 229 257 276 278 267 228 238 270 283 276 265 149 111 123 132 146 170 178 169 163 177 197 200 212 238 239 240 313 11 27 348 349 4 334 331 6 13 356 351 357 2 359 357 357 353 349 347 344 342 346 350 351 352 351 347 342 338 337 335 332 329 328 326 324 323 323 322 321 319 318 317 316 315 313 309 306 303 299 294 290 288 286 283
243 171 208 230 227 230 258 271 269 253 270 283 283 246 173 141 154 160 153 148 147 153 172 191 198 200 213 198 94 96 41 40 31 345 340 344 326 338 6 2 352 352 353 354 354 353 353 350 345 342 339 339 343 347 347 346 345 345 342 339 338 337 334 333 331 327 324 324 323 322 322 321 319 318 317 315 314 311 308 305 302 295 290 288 285 282
135 184 209 205 233 262 274 284 306 312 293 293 302 210 179 164 168 171 143 134 143 156 175 203 207 162 113 100 93 96 85 26 0 346 339 328 331 355 356 350 352 353 348 345 347 349 350 347 341 337 337 339 343 343 341 340 341 343 342 340 340 340 338 337 335 331 329 328 326 325 325 323 321 319 317 315 314 312 309 307 303 297 295 295 293 288
149 219 213 179 248 266 261 253 254 307 291 285 279 210 175 156 154 168 163 159 167 172 175 196 190 97 100 103 95 88 86 348 331 339 340 335 353 3 355 351 352 348 342 339 340 342 344 341 337 336 338 339 341 340 337 337 341 344 345 344 343 343 342 340 337 333 331 331 330 328 327 325 322 321 319 316 315 313 312 311 307 298 292 294 295 294
195 219 193 179 227 248 241 228 209 208 263 265 213 167 173 168 165 172 170 175 186 186 175 172 163 124 110 104 92 87 91 315 341 353 343 339 358 358 356 354 348 338 336 337 336 336 337 336 335 337 338 338 338 336 335 338 344 346 344 345 346 344 342 341 337 332 330 329 328 328 327 324 322 321 319 317 316 314 312 312 312 308 301 295 292 292
Height
838 849 862 865 867 865 863 864 859 858 858 856 860 865 867 863 861 866 870 875 872 871 885 888 887 893 892 894 895 895 897 896 896 897 896 896 895 895 894 893 892 891 890 889 888 888 887 886 886 885 884 884 883 882 881 880 879 878 878 877 877 876 876 875 875 874 874 873 873 872 872 871 870 870 869 868 867 865 864 863 863 862 860 860 859 858
842 858 872 870 869 870 867 864 859 858 859 860 864 864 867 868 865 864 868 875 873 868 882 892 890 892 893 892 894 895 895 893 893 894 893 894 894 893 893 891 891 890 889 888 887 887 886 885 885 884 883 882 881 880 879 879 878 877 876 876 875 875 875 874 874 873 872 872 871 870 870 869 869 868 867 866 865 864 863 862 861 860 859 859 858 857
853 865 872 869 871 870 868 867 862 861 864 865 866 864 865 869 868 864 867 876 875 868 880 893 890 890 893 891 892 894 892 891 890 890 889 889 891 892 891 890 889 889 888 887 886 884 884 883 883 882 881 880 879 879 878 877 876 875 875 874 874 873 873 873 872 871 871 870 870 869 868 868 867 867 866 865 864 862 861 860 860 859 858 857 856 855
861 868 872 874 873 865 865 872 866 860 866 867 867 867 868 872 868 860 865 878 880 875 882 893 893 891 893 892 891 890 889 889 888 888 888 887 887 887 887 888 887 887 886 884 884 882 881 881 881 879 878 878 877 876 875 875 874 873 873 872 872 871 871 871 870 869 869 868 868 867 867 866 865 865 864 863 862 861 859 859 858 857 857 856 855 854
869 873 875 873 872 867 863 868 867 859 863 871 870 870 871 872 870 864 868 877 879 883 888 892 888 882 887 892 888 888 890 888 887 887 887 886 885 885 885 885 884 883 882 882 880 879 879 878 877 876 875 875 874 873 872 871 871 871 871 870 870 869 868 868 868 867 867 866 866 865 864 864 863 863 862 862 861 859 858 857 857 856 855 855 854 853
873 876 875 869 868 870 864 866 875 868 864 869 869 869 871 872 873 870 873 875 871 875 883 886 873 862 878 893 887 886 889 887 886 886 884 884 884 884 883 882 881 880 878 878 877 876 876 874 874 873 873 872 871 869 869 869 869 869 869 868 867 867 866 866 865 864 864 863 863 863 862 862 861 861 860 859 859 858 856 855 855 854 854 854 853 852
874 876 877 873 870 871 869 870 878 876 870 867 865 869 873 875 877 872 872 871 864 865 876 881 870 859 867 875 879 886 889 887 887 884 882 882 881 881 880 878 877 877 876 875 874 873 872 871 871 870 868 869 867 866 866 866 867 867 866 866 865 865 864 864 863 862 862 861 861 860 860 859 859 858 858 857 857 856 854 853 853 853 852 852 851 850
874 874 875 875 871 869 871 871 875 880 874 863 864 871 873 876 877 872 868 866 863 867 876 878 873 868 859 859 877 887 885 886 886 882 880 878 878 876 875 874 873 872 871 871 871 869 869 867 867 865 864 864 863 863 864 863 863 864 864 864 863 863 862 862 861 860 860 859 859 858 857 857 857 856 855 855 855 854 853 852 851 851 851 850 850 849
878 875 876 875 871 869 871 873 876 880 872 862 867 874 874 875 875 873 869 867 871 871 868 870 871 869 857 860 885 889 881 882 876 872 872 870 872 872 869 870 868 868 867 867 866 864 864 863 862 861 860 860 860 861 861 860 860 861 861 861 860 860 859 859 859 858 857 856 856 856 855 855 854 854 853 853 852 852 851 850 849 849 849 848 848 847
877 875 878 876 876 874 872 875 877 876 871 867 873 874 873 877 876 874 871 869 874 871 864 867 869 868 859 858 879 886 876 870 860 859 864 862 865 866 865 866 864 865 865 863 862 860 859 858 857 857 858 857 857 857 857 857 858 858 857 858 857 856 856 856 856 855 855 854 853 853 852 852 851 851 850 850 849 849 848 848 847 847 847 847 846 846
878 876 878 877 879 879 875 876 877 877 875 872 873 866 861 870 872 873 877 875 872 867 865 869 869 873 868 854 863 870 858 850 847 848 853 856 860 861 860 861 860 861 861 859 859 856 855 855 855 856 855 854 853 854 854 853 853 853 853 853 852 852 852 852 852 852 851 850 849 849 849 848 848 847 847 847 846 845 845 845 845 845 845 845 844 844
877 873 877 879 879 881 875 873 876 878 878 873 871 862 853 863 868 864 868 870 865 861 866 873 872 877 873 850 847 855 851 851 850 842 840 844 850 855 857 856 856 857 856 856 855 853 852 852 852 853 851 849 850 850 849 848 848 848 848 848 848 847 848 847 847 848 847 847 845 844 844 844 844 843 843 842 842 841 841 841 842 842 843 842 842 842
875 876 880 879 878 880 874 869 870 869 872 871 870 867 860 867 871 863 866 876 872 866 873 879 873 873 868 847 840 845 845 850 853 847 843 842 843 847 852 853 853 853 853 852 851 849 849 848 847 847 845 845 845 844 843 843 843 843 843 843 843 841 842 842 842 842 842 842 840 839 840 839 839 839 838 838 837 837 837 837 838 839 839 840 840 839
873 877 881 876 875 880 876 873 870 868 873 875 876 876 870 875 880 875 883 894 883 870 879 887 879 869 860 843 837 838 837 844 852 852 850 849 846 845 848 851 851 851 850 848 848 846 845 844 841 841 840 840 840 838 838 838 838 838 838 838 837 835 836 837 836 837 837 836 835 834 834 834 834 834 833 832 832 832 832 833 834 835 835 836 837 837
873 871 875 875 875 879 880 880 879 879 881 882 885 884 876 881 884 879 883 887 880 878 886 888 875 861 848 836 836 840 843 850 852 851 853 851 850 850 851 852 850 848 847 845 845 843 840 838 837 836 836 835 834 833 833 834 833 833 833 832 831 830 830 831 831 831 831 829 829 829 829 829 828 828 828 827 827 827 828 829 829 830 831 832 833 834
879 871 875 879 879 879 879 882 885 884 881 886 891 883 878 885 887 887 892 892 895 900 895 883 867 855 846 835 840 849 848 848 848 848 850 846 846 852 851 848 847 845 844 842 842 840 836 834 833 832 832 830 829 829 829 829 828 827 826 825 825 824 824 825 825 824 824 823 823 823 823 823 823 823 823 823 823 823 823 824 825 826 827 828 830 831
879 872 877 880 879 879 880 882 885 882 877 882 886 880 886 895 890 890 899 904 911 907 893 882 865 854 850 834 835 849 842 835 838 840 843 843 845 850 847 843 843 840 838 838 837 835 832 830 829 828 827 825 825 824 823 822 821 821 820 820 819 819 819 819 818 817 817 817 817 816 816 817 817 818 818 818 819 819 819 820 820 822 823 824 826 828
887 875 876 880 875 878 886 884 884 887 883 879 878 880 891 897 893 897 900 901 908 902 889 882 867 857 858 840 829 838 834 826 829 832 840 845 844 846 843 840 839 836 834 834 832 831 828 826 825 822 821 820 819 818 817 816 816 815 815 815 814 813 812 811 811 811 811 811 811 810 810 811 811 812 813 814 815 816 816 816 816 817 818 820 822 824
897 877 873 883 879 879 887 884 880 886 887 882 880 885 888 885 887 897 898 892 897 900 888 883 881 870 860 844 827 824 825 824 827 831 837 838 836 839 838 835 835 833 832 831 828 826 824 821 819 817 816 814 813 813 812 811 811 811 810 809 808 807 805 805 806 806 806 806 806 806 806 807 807 808 809 810 812 813 812 812 811 812 814 816 818 821
899 881 872 880 884 882 882 881 878 879 885 885 884 888 887 886 888 892 897 896 894 897 889 883 881 860 841 838 829 821 824 826 828 830 832 831 831 834 833 832 832 830 829 827 825 822 819 816 814 812 811 810 809 809 808 808 808 806 805 804 803 802 801 801 802 802 802 801 801 801 802 802 803 804 805 807 808 809 809 809 808 807 809 811 814 817
898 889 877 876 884 883 875 876 876 873 879 881 881 885 885 889 895 894 898 901 893 890 892 889 872 841 830 837 830 824 827 827 828 830 830 830 830 830 830 830 829 827 826 824 821 819 816 813 811 809 808 808 807 807 805 804 803 801 800 799 798 797 797 797 797 796 796 796 796 796 796 798 799 801 802 803 805 806 806 807 806 804 805 807 809 813
893 891 886 880 877 871 867 879 885 880 880 877 875 879 879 883 891 890 895 903 901 892 888 889 868 830 823 832 826 824 827 825 829 832 831 831 830 828 829 828 827 826 824 822 819 817 814 811 809 808 807 807 805 804 802 801 800 798 796 795 793 793 793 792 791 790 790 790 790 791 791 792 795 797 798 799 801 803 804 805 804 802 802 803 805 808
896 897 894 883 875 872 875 885 889 887 885 880 877 881 885 888 886 882 883 891 900 899 895 901 884 835 815 824 822 822 828 828 832 835 832 831 829 829 829 826 826 825 821 820 817 814 812 810 809 807 806 805 803 802 800 798 797 795 793 791 790 789 787 785 785 784 784 785 785 784 785 787 789 791 792 794 797 799 801 803 802 800 799 800 801 804
897 896 891 880 874 876 883 888 889 889 887 881 880 884 887 886 882 882 886 889 893 890 887 899 883 832 813 826 825 825 832 833 834 834 832 831 828 827 827 824 823 821 819 818 814 812 811 809 808 807 805 804 803 801 799 797 795 793 791 789 787 785 783 781 780 780 779 779 777 777 778 780 782 785 787 790 793 796 798 800 800 798 796 797 799 801
890 888 888 882 873 868 871 876 879 881 884 881 879 882 882 884 890 893 898 902 895 879 874 884 868 827 816 828 826 825 831 829 828 830 829 829 827 825 824 822 820 819 816 815 813 811 810 808 808 807 806 805 803 802 800 798 796 794 792 790 788 785 783 781 779 777 774 773 772 772 773 775 778 781 785 789 792 794 797 798 798 795 794 795 797 799
889 888 887 881 876 872 865 862 862 868 877 879 876 879 879 884 890 886 890 899 892 880 880 877 853 821 813 823 823 824 829 827 825 825 825 825 824 822 822 820 818 817 815 814 813 812 811 810 810 809 808 807 805 804 802 799 798 796 793 791 788 785 782 779 776 774 771 770 770 770 771 774 777 781 786 790 792 794 796 797 796 794 792 793 794 796
895 896 891 880 874 871 862 857 863 871 874 872 872 875 879 885 888 885 890 889 878 879 879 863 847 830 819 822 826 825 826 825 823 822 821 821 821 820 821 819 817 817 815 815 815 814 813 813 812 811 810 808 807 805 802 800 797 795 791 788 785 782 779 776 773 770 769 768 769 770 772 775 778 782 786 789 791 793 795 795 795 793 791 791 792 794
896 891 889 887 878 872 867 865 871 879 877 872 872 872 875 884 889 889 886 871 863 873 863 841 845 849 833 825 826 824 822 822 821 821 819 819 820 820 819 817 816 816 817 818 817 816 816 815 813 812 810 809 808 806 804 801 798 795 791 787 784 781 777 773 770 767 767 768 770 772 774 777 781 784 786 788 789 791 793 794 794 792 791 790 791 792
895 886 888 892 881 875 878 877 878 882 879 875 875 872 874 882 885 881 874 862 862 867 848 827 836 844 835 827 824 822 823 823 821 820 819 820 820 819 818 817 818 819 820 820 819 818 817 816 815 814 812 812 810 808 806 803 799 796 792 788 784 780 776 771 768 766 767 769 772 774 776 780 783 785 786 787 788 790 791 792 792 792 790 790 790 790
894 886 892 896 886 879 879 877 880 884 881 877 875 872 872 876 878 875 868 861 862 861 846 837 840 838 830 827 824 823 825 825 823 821 820 821 821 820 821 822 823 824 823 822 821 820 819 819 819 818 816 815 812 810 808 805 801 798 793 788 783 778 773 769 766 766 768 771 774 776 779 782 784 785 786 787 788 789 790 791 791 791 790 789 789 789
892 888 896 898 889 879 874 871 875 881 881 877 872 867 864 864 868 873 870 864 863 860 851 850 852 843 830 825 826 827 826 824 822 820 820 822 824 825 826 827 826 825 824 823 823 822 822 822 821 819 818 816 814 812 809 806 803 798 793 788 783 777 773 770 769 770 773 775 778 780 781 783 784 785 786 787 788 789 790 790 790 790 789 789 788 788
893 892 896 897 885 872 873 875 872 874 878 874 863 855 851 851 855 860 862 860 856 849 846 850 850 838 824 822 824 823 822 822 822 822 824 827 828 829 830 829 828 826 825 825 825 825 825 823 821 820 818 816 814 812 810 807 803 799 794 790 785 781 778 777 778 778 779 781 782 782 783 784 784 785 786 787 788 789 790 790 790 789 788 787 787 787
900 892 889 895 883 869 876 882 874 874 871 855 841 835 832 837 846 848 848 848 846 843 841 838 831 823 820 823 821 817 818 823 825 827 830 831 831 831 831 830 828 827 827 828 828 827 825 823 822 821 819 817 815 813 811 808 804 800 796 792 789 786 784 783 783 783 783 783 783 784 784 785 785 786 787 788 789 789 789 789 789 788 787 786 785 786
907 894 891 898 884 868 877 882 874 870 856 832 826 832 830 830 837 839 836 834 836 837 835 828 824 823 823 820 817 818 823 828 829 830 832 833 833 832 830 829 828 829 830 830 829 827 826 824 823 821 819 818 815 813 810 807 804 801 798 795 792 789 788 787 786 785 785 785 785 785 785 785 786 787 787 788 788 788 789 788 788 787 785 784 784 784
899 894 894 900 891 878 880 880 865 848 833 824 828 836 834 831 835 837 833 830 829 830 828 827 826 823 819 818 821 826 830 830 829 830 833 834 832 831 830 829 830 831 831 829 828 827 825 824 822 820 818 816 814 811 809 806 804 801 798 796 793 791 790 788 787 787 787 786 786 786 786 786 787 787 787 788 788 788 787 786 786 784 783 783 783 783
889 891 891 895 894 884 877 874 857 834 824 826 828 830 832 833 835 837 834 828 824 824 825 826 824 820 820 824 827 829 830 829 829 831 833 832 831 832 832 833 833 832 831 829 828 826 825 824 822 820 818 816 813 811 808 806 803 801 798 796 794 792 791 790 789 788 787 787 787 787 787 787 787 787 787 787 786 786 785 784 783 782 781 781 781 781
885 888 889 890 890 885 880 876 862 844 833 825 820 825 831 829 829 834 834 827 821 822 824 824 822 822 825 829 830 830 830 827 826 829 832 831 832 835 835 835 835 832 831 830 828 827 826 824 823 821 818 816 813 810 808 805 802 800 798 796 794 793 792 791 790 789 788 788 787 787 787 787 786 786 786 785 785 784 783 782 781 780 780 779 779 779
885 885 885 884 884 887 888 880 868 853 834 817 817 828 833 832 833 836 837 831 823 822 825 825 824 826 829 832 832 830 828 822 819 826 832 833 834 836 835 835 834 832 831 830 827 826 825 823 821 819 817 815 812 810 807 804 802 799 798 796 795 794 792 791 790 789 789 788 787 787 787 786 786 785 784 784 783 782 781 780 779 778 778 778 777 777
887 888 888 886 885 888 887 879 871 856 830 814 820 830 835 837 837 837 837 831 824 825 827 827 828 830 832 834 833 832 830 825 819 823 831 833 833 833 833 832 831 830 829 828 826 825 823 821 819 817 815 814 811 809 807 804 802 800 798 797 796 794 793 792 790 789 789 788 787 786 786 785 784 783 783 782 781 780 779 778 777 777 776 776 776 775
889 890 892 891 888 889 888 881 874 857 831 819 823 830 836 839 837 836 833 825 823 829 830 828 830 832 833 835 834 834 833 830 826 826 829 830 831 831 830 829 828 828 827 826 825 824 822 820 818 816 814 813 811 809 807 804 803 801 799 797 795 794 792 791 790 789 788 787 787 785 785 784 783 782 781 780 779 778 777 776 776 775 775 774 774 773
893 894 894 892 889 891 893 886 874 853 830 821 825 830 836 838 835 834 828 819 822 829 830 830 832 833 833 834 834 834 833 832 831 830 829 829 829 828 829 829 828 827 826 825 824 823 821 819 818 816 814 813 811 809 807 805 803 801 799 797 795 793 792 791 790 789 787 786 786 784 783 782 781 780 779 778 777 776 775 774 774 773 773 772 772 771
882 889 892 893 888 887 890 887 874 848 824 820 828 834 836 833 827 824 821 818 822 826 828 830 831 832 833 833 832 832 831 830 830 830 830 829 829 828 828 828 827 826 826 825 824 822 821 819 817 816 814 812 811 809 807 805 803 800 798 796 794 793 792 790 789 788 787 785 784 783 782 781 779 778 777 776 775 774 773 773 772 771 771 770 770 769
857 862 868 878 877 875 884 885 863 832 815 819 826 829 831 825 817 816 819 820 822 825 827 828 829 830 831 831 830 831 830 830 830 830 829 829 828 828 828 827 826 826 825 824 823 821 820 818 816 815 813 812 810 808 806 804 802 800 798 796 794 793 791 789 788 786 785 784 783 781 780 779 778 777 776 775 774 772 771 770 770 769 769 768 767 767
849 843 841 851 854 854 861 857 831 809 811 820 818 815 818 818 814 816 819 820 821 825 826 826 828 829 829 829 829 829 828 829 829 828 828 829 828 828 828 826 826 825 824 824 822 820 819 817 815 814 813 811 810 807 805 804 801 799 798 795 793 792 789 788 787 785 784 782 781 780 778 777 776 775 774 773 772 771 770 768 768 767 766 766 766 764
837 833 827 831 835 833 829 821 809 806 813 818 814 811 813 814 815 817 818 818 821 824 824 825 826 827 827 827 827 827 827 827 828 827 828 828 827 827 827 826 825 825 824 823 820 819 818 816 814 813 812 810 808 806 805 803 801 799 797 795 793 791 788 786 785 783 782 780 779 778 776 775 774 773 772 771 770 769 768 766 765 765 764 764 763 762
829 833 831 827 826 825 816 807 807 809 809 810 813 813 813 814 816 817 818 819 821 822 823 824 825 825 825 825 825 825 826 826 826 827 827 827 827 826 825 824 824 824 822 821 819 818 817 815 814 812 810 808 807 805 803 802 801 799 796 794 792 790 787 785 783 782 780 779 777 776 774 773 772 771 770 769 768 767 766 764 763 762 761 761 761 759
828 834 833 827 825 825 815 805 806 809 806 808 811 812 813 816 817 817 818 819 820 821 822 823 823 823 823 823 823 824 825 825 826 826 826 826 826 825 824 824 823 822 820 819 818 817 816 814 812 811 809 807 805 803 802 801 799 798 795 793 791 789 786 785 783 780 779 777 775 774 773 771 769 768 767 766 765 764 763 762 761 760 759 758 758 757
827 831 830 825 824 822 811 803 807 810 808 808 811 811 812 815 815 817 818 818 819 821 821 821 822 822 822 822 823 824 824 825 825 825 825 825 825 824 824 823 821 820 819 818 817 816 814 813 811 809 808 806 803 802 801 799 798 796 794 792 790 787 785 783 781 779 778 776 774 772 771 769 768 766 764 763 762 761 760 759 758 757 756 755 755 754
826 828 825 821 820 818 811 806 808 810 807 806 809 811 812 813 815 816 817 817 819 820 820 821 820 820 821 822 822 823 824 824 824 824 824 824 823 823 822 821 820 819 818 816 816 814 813 811 810 808 806 804 802 801 799 797 796 794 792 790 788 786 784 782 780 778 776 774 773 771 769 767 766 764 762 761 759 758 757 756 755 754 752 751 751 751
825 822 819 822 822 817 810 807 806 807 806 806 808 810 812 813 814 815 816 818 819 819 819 820 820 820 821 822 821 822 823 823 823 823 823 822 822 822 820 819 818 817 816 815 814 812 811 810 808 807 804 802 801 800 797 796 794 792 790 789 787 785 783 780 778 776 774 773 771 769 767 766 764 762 761 759 757 755 753 752 752 751 750 748 748 747
817 812 811 816 814 806 802 803 805 807 807 806 808 811 812 813 814 814 815 816 817 817 818 819 819 820 821 821 821 822 822 822 822 822 821 821 820 819 818 817 817 816 815 814 812 811 810 808 806 804 803 801 799 798 796 794 792 790 789 787 785 784 782 780 777 775 773 771 770 768 766 764 762 760 759 757 755 754 751 749 747 746 747 746 745 743